{"data":{"norad_id":64311,"intl_designator":"2025-123W","name":"STARLINK-34368","alt_names":[],"object_type":"PAYLOAD","status":"ACTIVE","operator":null,"country":"US","launch_date":"2025-06-08","launch_site_code":"AFWTR","launch_vehicle":null,"mission":null,"orbit_class":"UNKNOWN","rcs_meters":null,"size_class":null,"mass_kg":null,"dimensions":null,"purposes":["comms"],"wikipedia_slug":null,"has_3d_model":false,"image_url":null,"decayed_at":null,"tle_current":{"epoch":"2026-05-24T23:33:56.198016Z","epoch_age_seconds":87128,"freshness":"FRESH","line1":"1 64311U 25123W   26144.98190044  .00001272  00000+0  11437-3 0  9990","line2":"2 64311  70.0027   2.1979 0001552 265.1688  94.9294 14.98340315 53047","mean_motion":14.98340315,"eccentricity":0.0001552,"inclination_deg":70.0027,"raan_deg":2.1979,"arg_perigee_deg":265.1688,"mean_anomaly_deg":94.9294,"bstar":0.00011437,"rev_number":5304,"period_min":96.106337497833,"perigee_km":570.94532785471,"apogee_km":573.10265782689,"semimajor_km":6950.1609928408,"source":"CELESTRAK","updated_at":"2026-05-25T13:38:20.370175Z"}}}